Location: Eschertshofen
(49.3064°N, 11.5756°E)
Time: 01:00:51
(UTC+00:00)

Iridium 26 - Pass Details

Date: 29 September 2021
Orbit: 772 x 775 km, 86.4° (Epoch: 21 October)

Event Time Altitude Azimuth Distance (km) Brightness Sun altitude
Exits shadow 21:59:13 13° 306° (NW) 2,143 8.3 -41.5°
Drops below altitude 10° 22:00:44 10° 322° (NW) 2,332 8.6 -41.6°
Sets 22:04:28 0° 350° (N) 3,264 9.6 -41.8°
